Wind_Speed
20 20 20 19 19 19 19 19 19 18 19 18 18 19 20 20 20 20 21 22 22 23 23 24 24 25 25 25 25 26 27 27 28 28 28 28 29 29
22 22 22 22 21 21 22 21 21 21 22 21 21 21 21 21 22 22 23 24 25 26 27 27 27 28 29 29 29 29 29 30 31 31 31 31 32 32
24 24 24 24 23 23 23 23 23 23 23 24 23 23 23 24 25 26 26 27 27 28 29 29 30 31 31 31 32 32 33 33 34 34 34 35 35 35
25 25 26 26 26 26 26 26 26 26 25 26 26 26 27 27 28 29 29 29 30 30 31 32 33 33 33 34 34 35 36 36 37 37 37 38 38 38
26 26 27 27 28 28 28 28 29 28 28 28 29 30 31 31 32 32 33 33 34 34 35 35 35 35 35 36 36 37 38 38 39 39 39 40 40 41
27 28 28 28 29 29 30 30 30 31 31 32 32 33 33 34 34 34 34 34 35 36 37 37 37 38 38 38 39 39 40 40 41 41 42 43 43 44
27 28 29 30 31 30 30 31 31 31 32 33 33 34 35 35 35 36 37 37 37 38 39 40 40 40 41 42 43 43 44 44 44 45 45 46 47 48
27 28 28 29 29 31 32 32 32 32 33 33 34 34 35 35 36 37 38 39 40 40 41 41 42 42 43 44 44 45 46 47 47 47 48 49 50 50
27 27 27 28 30 31 32 32 32 33 34 34 35 35 37 38 38 39 40 41 41 42 42 43 44 45 46 47 47 47 48 49 50 50 51 51 52 52
24 26 27 28 30 30 30 31 32 33 34 35 36 37 39 39 40 41 41 42 43 43 45 46 47 48 49 50 50 50 52 53 53 54 54 54 55 55
24 25 27 28 30 31 31 32 33 34 35 36 37 38 39 40 42 42 42 43 45 46 47 48 49 51 52 53 54 54 55 56 56 57 58 58 59 58
25 26 27 29 30 30 32 33 34 35 36 37 38 39 40 41 42 43 44 45 47 48 49 50 51 52 53 53 54 54 55 56 57 57 58 58 59 59
25 26 28 29 30 31 32 34 35 36 37 38 40 41 42 43 44 44 45 47 48 49 50 51 51 52 52 51 51 51 52 53 53 53 54 54 55 56
26 27 28 29 30 32 34 35 36 36 38 39 40 41 42 43 45 46 47 48 49 50 50 49 49 49 50 51 51 50 51 51 52 52 52 52 52 52
27 28 29 30 32 33 34 35 36 37 38 40 41 42 43 44 45 46 47 48 49 49 48 48 48 49 49 50 50 49 50 50 50 50 50 50 50 50
28 29 31 32 34 35 36 36 38 39 40 41 42 43 44 45 46 47 48 48 48 48 47 47 46 47 47 47 47 48 48 49 49 49 48 48 48 49
29 31 32 33 35 36 37 38 39 40 42 42 43 44 44 45 44 45 45 45 45 45 45 45 45 44 45 45 45 46 46 46 46 45 44 44 43 43
31 32 33 34 35 36 38 39 40 41 42 44 43 43 43 43 43 42 42 42 43 42 42 43 43 43 43 43 43 44 43 43 42 41 40 40 40 39
33 34 36 37 37 39 40 41 41 42 43 43 43 42 42 42 41 41 41 41 41 41 41 41 42 42 42 42 42 42 41 39 39 38 38 37 36 35
35 36 37 37 39 39 40 40 41 41 41 41 41 41 40 40 40 40 41 41 41 41 42 42 42 41 40 40 39 39 39 37 36 35 35 34 34 34
35 36 37 37 38 38 38 39 40 40 40 40 40 40 40 40 40 41 41 41 41 41 41 40 40 39 39 38 37 36 36 36 34 33 33 32 32 32
35 35 36 36 36 37 38 38 39 39 40 39 39 39 39 40 40 40 40 40 39 39 38 38 37 36 36 36 35 34 33 32 31 30 29 29 29 28
34 35 35 36 37 37 38 38 38 38 38 38 38 38 38 38 38 38 37 37 37 36 36 35 35 34 33 33 32 31 29 29 29 28 28 28 27 26
Wind_Direction
248 249 252 254 257 260 262 265 267 269 271 271 271 269 269 269 270 273 274 275 275 277 277 277 278 278 278 277 278 279 279 280 281 281 282 283 283 283
250 252 254 256 259 261 263 264 266 268 270 272 273 273 272 271 271 273 276 276 276 277 277 276 277 277 276 276 277 278 278 278 279 279 280 280 281 282
252 253 256 257 260 262 265 266 266 268 270 272 275 275 274 274 274 275 276 277 278 278 277 277 278 278 277 277 277 278 278 278 279 280 280 280 281 281
254 254 256 259 261 263 265 266 268 269 270 272 275 275 276 276 276 277 277 278 279 278 278 278 279 279 279 278 278 278 279 279 279 280 280 280 281 281
257 258 261 262 262 264 265 267 269 270 270 272 273 274 276 277 277 277 278 278 279 279 278 279 279 279 280 280 279 280 280 280 280 280 280 279 280 280
259 260 262 263 263 265 265 267 269 270 271 273 274 275 277 277 278 278 279 280 280 281 282 280 279 279 279 279 279 279 279 280 281 281 280 280 280 280
260 261 263 264 265 264 266 267 270 271 272 274 275 276 277 277 278 278 279 279 281 282 282 281 280 280 280 279 280 280 280 281 281 281 281 281 280 280
260 263 266 268 268 267 268 269 271 271 273 275 277 278 278 279 281 281 281 280 280 281 282 282 281 281 281 280 280 280 281 281 280 280 280 280 280 280
261 263 266 269 270 271 270 271 272 273 274 277 279 280 281 281 281 281 282 282 282 283 283 282 282 282 282 282 282 282 281 281 281 281 281 281 281 280
267 267 268 270 271 273 274 275 275 276 276 279 280 280 281 281 282 282 282 282 283 284 284 283 282 283 283 283 283 283 283 283 282 282 282 282 283 281
272 273 275 275 274 275 277 277 278 279 280 281 281 281 282 283 283 284 284 285 284 284 285 285 285 286 285 285 284 283 284 284 283 283 283 283 283 282
273 276 277 277 278 279 280 281 281 282 282 283 284 286 286 286 286 286 286 286 285 285 285 285 286 286 286 286 286 286 285 284 283 283 283 283 283 283
277 278 280 281 281 282 283 283 284 285 285 286 286 287 287 287 287 286 287 287 287 287 288 288 288 288 288 288 287 287 287 286 286 285 285 285 284 284
281 282 283 284 285 285 286 286 286 286 287 289 289 289 289 289 289 289 289 289 289 290 290 290 290 290 290 289 289 288 287 287 287 287 287 287 286 285
281 284 285 286 286 287 288 288 288 290 290 291 291 292 292 292 291 291 292 292 292 293 292 291 291 291 292 291 290 288 288 288 287 287 287 286 286 286
283 284 286 287 288 289 290 290 291 292 292 293 293 293 293 293 293 293 294 294 294 295 294 294 294 293 293 293 292 292 290 289 288 287 287 287 287 287
286 287 289 290 290 291 291 292 292 292 293 293 293 293 294 295 295 295 296 295 295 295 295 296 296 296 296 295 295 294 292 290 288 288 288 288 289 287
291 292 293 293 294 294 293 294 295 295 296 296 296 296 296 296 296 296 296 296 296 297 297 297 297 297 297 297 296 296 295 292 290 291 291 291 290 288
293 294 295 295 295 296 296 296 297 297 298 298 297 297 296 296 296 296 296 297 297 298 298 298 298 298 298 298 297 296 296 294 293 292 292 293 293 291
295 296 296 296 297 298 298 298 298 298 298 298 298 297 297 297 296 296 297 297 298 298 298 298 298 298 298 299 299 298 297 297 295 293 292 293 293 292
298 298 299 299 299 300 299 299 299 299 299 299 299 299 298 298 297 297 297 297 297 297 297 297 298 298 299 300 300 300 300 298 296 294 293 293 292 292
300 301 301 301 301 301 301 301 301 301 301 301 300 300 300 299 298 298 298 298 297 297 297 297 299 299 300 300 301 301 301 300 298 296 294 293 292 290
302 303 303 303 303 303 303 303 303 303 302 302 301 301 301 301 300 300 299 299 299 298 298 298 299 300 301 301 302 302 302 301 299 297 296 295 295 293
Height
5879 5880 5881 5882 5883 5883 5884 5884 5884 5884 5883 5883 5882 5882 5882 5881 5881 5880 5880 5879 5878 5878 5877 5876 5875 5874 5874 5873 5872 5871 5870 5869 5868 5867 5866 5865 5864 5863
5875 5876 5877 5878 5878 5879 5879 5879 5879 5879 5879 5878 5877 5877 5876 5876 5875 5875 5874 5873 5872 5871 5870 5869 5868 5867 5866 5866 5865 5864 5863 5862 5861 5859 5858 5857 5856 5855
5869 5870 5871 5872 5873 5873 5874 5874 5874 5874 5874 5873 5872 5871 5871 5870 5869 5868 5867 5866 5865 5864 5863 5862 5861 5860 5859 5857 5856 5855 5854 5853 5852 5851 5849 5849 5847 5846
5864 5865 5866 5867 5867 5868 5868 5868 5868 5868 5867 5867 5866 5865 5864 5863 5862 5861 5860 5859 5857 5857 5855 5854 5853 5851 5850 5849 5847 5846 5845 5843 5842 5841 5840 5839 5838 5836
5858 5859 5860 5860 5861 5861 5861 5861 5861 5861 5860 5860 5859 5858 5857 5856 5854 5853 5852 5850 5849 5848 5846 5845 5843 5842 5840 5839 5838 5836 5835 5834 5832 5831 5829 5828 5827 5825
5852 5853 5853 5853 5854 5854 5854 5854 5853 5853 5853 5852 5851 5850 5849 5847 5846 5844 5843 5841 5840 5838 5836 5835 5833 5832 5830 5829 5827 5826 5824 5822 5821 5819 5818 5817 5815 5813
5845 5846 5846 5846 5846 5846 5846 5846 5846 5845 5844 5843 5843 5842 5840 5838 5837 5835 5833 5832 5830 5828 5826 5824 5823 5821 5819 5817 5816 5814 5812 5810 5809 5807 5805 5804 5802 5800
5838 5838 5839 5839 5839 5839 5838 5838 5837 5837 5836 5835 5833 5832 5831 5829 5827 5825 5823 5822 5820 5819 5816 5813 5811 5809 5807 5805 5804 5802 5800 5797 5796 5794 5792 5790 5788 5786
5831 5831 5831 5831 5831 5831 5830 5829 5829 5828 5827 5826 5824 5823 5821 5820 5818 5815 5813 5811 5809 5807 5805 5802 5799 5797 5795 5792 5791 5788 5786 5784 5781 5779 5777 5775 5773 5771
5824 5824 5824 5824 5823 5822 5822 5821 5820 5819 5818 5817 5815 5814 5812 5810 5807 5805 5802 5800 5797 5795 5793 5790 5787 5784 5782 5779 5777 5774 5771 5769 5766 5763 5761 5758 5756 5754
5818 5817 5817 5816 5815 5814 5814 5813 5812 5811 5809 5807 5805 5803 5801 5798 5796 5793 5790 5788 5785 5783 5780 5777 5774 5770 5767 5765 5761 5758 5755 5752 5749 5746 5744 5741 5739 5736
5811 5810 5810 5809 5808 5807 5805 5804 5803 5801 5799 5797 5795 5792 5790 5787 5784 5782 5779 5776 5772 5769 5766 5763 5760 5756 5753 5750 5745 5742 5739 5735 5733 5730 5727 5724 5721 5718
5804 5803 5802 5801 5800 5798 5797 5795 5793 5791 5789 5787 5784 5782 5779 5776 5772 5769 5766 5762 5759 5755 5752 5748 5745 5741 5737 5734 5730 5726 5722 5719 5715 5712 5709 5706 5703 5700
5798 5797 5795 5794 5792 5790 5788 5787 5784 5782 5779 5776 5773 5770 5767 5763 5760 5756 5752 5748 5744 5741 5737 5733 5729 5725 5721 5718 5714 5711 5707 5703 5699 5696 5693 5690 5687 5683
5791 5789 5788 5786 5784 5782 5779 5777 5774 5772 5768 5765 5762 5758 5754 5751 5747 5743 5739 5735 5730 5726 5723 5719 5715 5711 5706 5702 5699 5695 5692 5688 5684 5681 5677 5674 5670 5668
5784 5782 5780 5777 5775 5772 5769 5767 5764 5761 5757 5754 5750 5746 5742 5738 5734 5730 5725 5721 5716 5712 5708 5705 5700 5696 5692 5687 5683 5680 5676 5673 5669 5666 5662 5659 5655 5652
5775 5773 5771 5768 5765 5762 5759 5756 5753 5750 5746 5742 5738 5734 5730 5725 5721 5716 5712 5707 5703 5699 5695 5691 5687 5682 5678 5674 5670 5666 5662 5658 5655 5652 5648 5645 5642 5638
5767 5764 5761 5758 5755 5752 5749 5745 5742 5738 5734 5730 5726 5721 5717 5713 5708 5704 5700 5696 5691 5687 5682 5678 5674 5670 5666 5662 5657 5653 5648 5644 5641 5638 5635 5632 5629 5625
5758 5755 5752 5748 5745 5742 5738 5734 5730 5726 5722 5717 5713 5709 5705 5700 5696 5692 5688 5684 5680 5675 5671 5667 5662 5658 5654 5650 5645 5640 5636 5632 5629 5626 5623 5620 5616 5614
5748 5745 5742 5738 5735 5731 5727 5723 5718 5714 5710 5705 5701 5697 5692 5689 5685 5680 5676 5672 5668 5664 5660 5655 5651 5647 5642 5639 5634 5629 5624 5621 5617 5615 5612 5609 5606 5603
5738 5735 5731 5728 5724 5719 5715 5711 5707 5702 5698 5694 5689 5685 5681 5677 5673 5669 5665 5661 5656 5652 5648 5644 5640 5636 5631 5627 5623 5619 5614 5610 5607 5604 5602 5599 5596 5593
5728 5725 5721 5717 5713 5709 5704 5700 5695 5691 5687 5682 5678 5673 5669 5665 5660 5656 5652 5648 5644 5640 5637 5633 5629 5625 5621 5617 5613 5609 5605 5601 5597 5594 5592 5589 5587 5584
5718 5714 5711 5707 5702 5698 5694 5689 5685 5680 5676 5671 5667 5662 5658 5653 5649 5644 5640 5637 5633 5629 5626 5622 5618 5615 5611 5607 5603 5600 5596 5592 5589 5586 5583 5580 5578 5575